Snowfall_Accumulation
nan nan nan nan nan nan nan nan nan nan nan nan nan nan nan nan nan 0.0 0.0 0.0 0.4 5.4 0.1 0.0 0.0 0.8 0.4 0.7 4.8 0.9 4.8 1.9 3.1 5.6 4.1 3.4 4.1 5.5 2.7 0.1 1.8 5.8 3.0 2.4 1.4 3.2 6.3 0.0 0.0 2.3 3.3 0.3 2.4 3.7
nan nan nan nan nan nan nan nan nan nan nan nan nan nan nan nan nan nan 0.1 0.0 0.0 1.5 0.9 0.0 0.0 0.0 0.0 0.1 1.7 0.8 2.7 1.1 1.6 3.3 3.8 4.0 3.3 2.1 2.2 2.2 0.2 11.9 4.3 6.2 0.8 1.0 0.0 0.0 0.0 0.0 0.0 0.7 1.2 4.7
nan nan nan nan nan nan nan nan nan nan nan nan nan nan nan nan nan nan 0.0 0.0 0.1 3.0 1.3 0.7 0.6 0.0 0.0 0.0 0.0 6.6 0.8 2.8 3.5 3.6 9.2 4.0 5.1 2.5 3.6 1.6 1.3 0.7 0.3 1.3 0.9 0.0 0.0 0.0 0.0 0.0 0.0 0.3 0.4 1.2
nan nan nan nan nan nan nan nan nan nan nan nan nan nan nan nan nan nan 0.0 0.0 0.0 2.6 10.3 1.2 0.0 0.1 0.0 0.0 0.0 0.1 0.5 1.1 4.5 5.8 12.2 9.6 7.9 2.8 3.8 3.8 3.6 1.4 0.4 0.3 0.2 0.1 0.0 0.0 0.0 0.0 0.1 0.1 0.2 0.2
nan nan nan nan nan nan nan nan nan nan nan nan nan nan nan nan nan nan 0.0 0.0 0.0 2.8 4.1 0.8 0.1 0.1 0.0 0.0 0.2 0.7 4.4 6.7 13.8 18.5 18.8 16.5 4.6 7.6 2.9 6.3 5.0 1.8 2.3 1.4 0.4 0.0 0.4 0.1 0.0 0.0 0.6 1.0 0.9 2.0
nan nan nan nan nan nan nan nan nan nan nan nan nan nan nan nan nan 0.0 1.2 0.2 0.0 0.5 7.0 3.9 0.6 0.8 0.1 0.0 1.9 3.5 3.9 8.5 8.9 9.5 13.7 12.1 6.8 9.3 12.5 6.3 2.2 1.2 0.6 0.8 2.3 0.1 0.2 0.0 0.0 0.2 1.6 1.0 1.5 1.6
nan nan nan nan nan nan nan nan nan nan nan nan nan nan nan nan 0.0 0.5 1.3 0.1 nan 0.4 4.4 10.6 2.7 1.1 1.5 1.4 1.7 5.0 3.4 7.0 8.1 10.2 8.2 7.7 6.7 6.8 5.6 6.3 3.4 3.2 1.6 0.6 0.1 1.4 0.8 0.2 1.8 0.4 0.8 0.7 1.0 1.6
nan nan nan nan nan nan nan nan nan nan nan nan nan nan nan nan nan 1.2 0.1 nan nan 1.9 1.7 13.9 5.2 2.0 0.4 2.7 5.4 2.2 6.6 4.0 4.5 6.7 6.2 6.8 5.0 5.2 12.9 7.6 6.3 4.7 2.6 1.7 1.0 1.2 1.7 1.1 0.7 0.9 0.8 0.9 1.4 2.3
nan nan nan nan nan nan nan nan nan nan nan nan nan nan 0.0 1.2 3.6 2.1 nan nan 0.1 2.7 9.9 7.0 5.6 8.5 0.5 2.1 3.9 5.9 4.8 8.3 4.0 8.1 6.7 2.3 5.2 13.7 15.1 9.2 6.6 6.0 6.3 5.7 2.2 2.2 2.3 2.3 2.7 2.5 2.2 2.4 1.9 4.3
nan nan nan nan nan nan nan nan nan nan nan nan 0.1 4.7 16.4 5.4 nan nan 4.3 6.4 5.8 4.4 4.2 7.2 0.6 5.1 2.1 1.8 3.2 5.5 3.3 6.6 13.8 9.3 2.5 7.0 19.3 8.1 11.6 11.9 9.7 9.3 8.9 6.6 4.5 6.5 3.7 3.7 4.1 4.6 5.8 5.1 5.2 6.3
nan nan nan nan nan nan nan nan nan nan nan 0.7 11.0 12.5 6.7 nan 3.5 8.7 20.2 17.8 7.6 12.7 1.6 2.6 2.7 4.7 1.3 6.5 5.4 3.3 8.8 6.2 15.0 5.2 3.9 9.7 12.2 17.7 12.6 11.2 10.7 9.7 9.1 10.6 7.6 7.7 5.8 6.4 7.0 5.1 4.9 5.0 5.1 4.1
nan nan nan nan nan nan nan nan nan 0.1 1.7 3.6 3.7 3.9 5.9 11.5 19.8 21.7 21.4 10.1 6.1 4.3 1.6 3.1 3.8 3.4 2.2 2.1 8.2 8.8 12.2 11.6 17.1 3.7 8.4 11.9 16.0 13.2 9.8 12.3 11.8 10.6 8.7 10.7 7.1 7.2 6.8 6.0 5.3 5.1 5.1 5.2 5.0 5.4
nan nan nan nan nan nan nan nan nan nan nan 4.7 13.8 26.6 26.6 30.0 51.0 24.2 18.0 8.8 6.8 2.5 2.9 4.3 5.7 1.9 1.0 2.0 8.7 9.0 13.8 11.9 1.6 12.2 8.2 12.1 13.1 10.0 10.3 8.3 9.9 10.1 8.5 7.2 7.4 7.5 6.2 6.5 4.4 3.8 5.3 6.4 4.0 2.6
nan nan nan nan nan nan nan nan nan 0.2 1.6 22.2 38.0 67.0 29.6 30.7 9.0 6.2 5.3 5.2 4.2 4.4 2.9 2.2 2.0 5.0 1.8 7.9 4.0 12.9 3.2 3.9 13.3 11.3 11.0 9.1 7.8 6.6 5.8 7.0 3.8 6.5 5.5 3.8 5.8 3.5 3.6 1.8 2.3 2.2 1.4 1.1 1.1 1.0
nan nan nan nan nan nan nan nan nan 1.2 5.2 41.4 28.0 43.7 28.5 8.7 8.0 6.2 5.0 4.2 1.8 1.0 2.1 2.1 2.6 3.5 5.6 9.7 4.4 4.2 11.2 11.2 3.2 5.7 5.3 5.9 3.5 3.0 2.2 2.1 2.1 1.3 1.5 1.0 0.7 0.7 0.4 0.6 0.7 1.0 1.0 1.1 0.8 0.6
nan nan 0.0 nan nan nan nan nan 4.8 9.2 35.5 40.5 32.5 27.6 5.0 6.3 8.8 5.9 4.5 3.1 0.8 0.8 1.3 3.4 9.8 14.3 10.3 8.0 10.3 10.9 13.8 8.7 5.9 4.3 3.7 1.8 0.5 0.4 0.2 0.1 0.3 0.4 0.2 0.3 0.3 0.2 0.3 0.3 0.5 0.9 0.8 0.9 0.9 1.2
nan 0.3 nan nan nan nan nan 7.2 18.7 41.3 45.5 45.3 33.6 5.4 5.3 5.6 6.7 3.1 1.1 1.0 0.3 3.1 7.3 7.2 16.8 10.6 4.3 11.9 10.3 4.9 10.0 4.4 2.2 2.5 1.0 0.1 0.0 0.0 0.0 0.0 0.0 0.0 0.0 0.1 0.2 0.0 0.0 0.1 0.2 0.3 0.5 1.0 1.0 1.2
0.1 0.0 nan nan nan nan 11.5 17.5 40.7 49.3 53.6 22.1 13.6 7.5 3.3 2.9 3.0 2.5 1.4 1.1 1.7 2.8 3.3 8.2 4.5 13.2 14.3 12.8 7.0 7.1 5.0 3.8 1.2 0.4 0.2 0.1 0.0 0.0 0.0 0.0 0.0 0.0 0.1 0.1 0.1 0.1 0.1 0.2 0.2 0.7 0.7 1.3 1.3 1.3
0.1 0.1 nan nan 0.2 11.1 43.0 50.1 22.5 39.9 26.8 7.4 5.5 3.6 3.0 2.6 2.5 1.8 1.3 0.9 1.0 0.3 4.1 8.3 14.7 17.4 6.9 8.1 7.4 5.8 3.2 0.6 0.2 0.1 0.1 0.0 0.0 0.0 0.0 0.1 0.1 0.1 0.2 0.3 0.1 0.3 0.3 0.3 0.5 1.4 1.4 1.0 1.4 1.6
nan nan nan nan nan 33.9 53.7 43.7 13.9 15.6 17.5 11.1 6.5 8.9 7.2 4.8 2.5 2.2 2.1 1.4 1.7 4.7 11.8 19.5 8.8 5.7 5.3 5.8 4.7 2.7 1.1 0.0 0.0 0.1 0.0 0.0 0.0 0.1 0.2 0.2 0.0 0.1 0.1 0.1 0.4 nan 0.4 0.4 0.4 0.3 0.6 1.1 2.3 2.0
nan nan nan 6.8 21.4 21.9 27.9 26.5 21.8 19.5 14.8 11.5 13.0 9.0 14.8 8.0 9.7 9.5 8.1 1.7 9.1 16.1 14.7 8.2 6.6 5.7 4.5 3.6 0.8 0.2 0.1 0.0 0.0 0.0 0.0 0.3 0.0 0.2 0.4 0.6 0.8 0.0 0.1 0.2 0.8 1.0 0.5 0.8 0.8 0.8 6.4 1.4 0.9 1.3
5.1 nan 11.7 11.8 36.1 35.9 27.4 16.3 17.2 11.9 13.9 13.3 14.3 11.5 19.8 23.2 20.9 19.4 6.1 18.6 18.8 8.4 6.5 5.8 4.9 3.0 2.3 1.2 0.5 0.1 0.0 0.0 0.0 0.0 nan 0.1 0.4 0.6 0.7 0.9 1.6 4.7 3.9 4.3 2.8 2.0 1.2 1.0 1.7 2.1 1.5 1.6 1.6 1.8
nan 5.7 18.7 22.9 36.5 32.2 41.7 13.1 17.9 18.7 20.7 25.9 21.5 21.1 24.4 23.8 17.2 7.6 21.0 10.3 8.1 5.8 4.8 3.8 2.9 2.0 1.3 0.5 0.2 0.1 0.0 0.1 0.2 0.2 0.1 0.2 0.1 0.6 1.1 0.9 1.1 7.2 7.2 2.1 1.1 2.7 4.1 nan 1.4 2.8 2.1 1.7 2.3 3.1
nan 29.9 39.8 33.3 27.4 30.1 11.6 19.8 8.3 11.6 15.3 17.2 21.5 20.5 18.5 15.8 11.7 21.8 17.4 9.8 6.0 4.1 3.4 2.1 1.9 1.9 2.0 2.5 1.2 0.6 0.4 0.2 0.5 0.7 0.4 0.9 1.8 0.7 0.3 0.7 0.8 0.8 1.8 1.9 3.0 3.6 3.0 3.7 nan 3.9 4.3 5.5 5.4 6.3
43.5 57.1 27.6 43.0 17.3 17.4 11.3 10.8 16.8 11.2 13.1 13.7 14.8 17.0 15.5 12.8 18.3 18.8 11.4 9.7 6.5 5.0 2.9 1.7 1.8 2.2 4.3 4.0 0.7 0.8 0.4 0.7 1.8 2.1 0.9 1.0 2.6 2.3 2.6 1.1 0.3 0.8 2.5 8.3 5.6 4.8 4.7 5.4 5.0 5.9 5.5 6.4 7.0 8.1
49.1 22.5 33.7 10.3 14.5 8.1 7.0 9.8 9.8 11.1 9.2 14.0 13.5 11.1 13.9 13.0 16.1 17.4 7.7 8.7 7.9 5.8 6.6 6.5 5.0 3.6 2.0 1.3 1.9 1.9 1.1 0.9 1.6 2.8 1.4 1.5 2.3 6.6 7.4 4.0 3.8 2.3 1.4 6.1 13.1 10.5 7.5 6.7 8.5 8.2 7.6 5.8 nan 10.4
36.0 18.4 7.5 1.0 2.3 2.0 3.5 3.7 3.2 6.7 12.7 11.4 9.4 8.7 11.3 19.0 13.2 4.3 3.1 3.0 5.4 5.1 4.8 3.2 2.4 2.4 2.4 2.1 1.3 1.7 1.6 2.5 3.4 3.4 1.6 1.6 1.6 2.3 6.9 13.2 10.8 1.8 3.3 7.8 9.2 9.7 11.2 8.3 8.9 8.8 8.9 7.6 6.9 7.6
4.3 4.1 6.3 8.8 4.4 4.7 4.7 4.7 6.7 8.5 7.0 3.2 4.5 11.5 11.6 7.8 5.8 3.2 3.5 3.6 6.4 7.5 9.0 6.9 5.1 5.2 7.1 6.5 6.3 6.2 7.9 7.3 7.9 5.6 4.1 2.7 3.3 6.0 7.0 6.5 7.0 nan 9.8 9.3 13.2 11.1 9.8 9.5 9.9 8.9 9.6 9.8 8.3 6.8
8.4 5.1 4.2 11.2 10.3 10.8 11.6 9.6 7.1 3.4 0.6 2.4 7.1 5.7 4.4 1.9 5.5 5.0 3.0 5.0 7.7 9.6 9.0 8.7 10.6 10.1 10.8 9.5 8.9 9.1 10.5 9.5 10.9 7.4 4.3 4.2 5.1 7.9 9.3 9.4 10.8 9.9 9.4 9.4 nan nan 11.9 12.6 11.5 9.9 7.8 8.3 6.3 8.4
8.3 9.3 8.9 10.8 9.2 8.7 9.1 5.4 9.0 7.9 3.3 3.7 4.0 4.8 3.5 4.7 5.1 3.8 5.5 7.0 8.6 11.6 13.5 15.9 15.5 17.1 15.0 12.4 13.1 11.6 12.9 12.8 10.9 11.1 12.0 9.1 7.9 6.7 9.8 12.4 11.3 9.8 9.9 10.4 9.7 8.6 nan 7.6 nan 8.6 10.7 10.5 9.8 11.0
7.8 11.5 10.6 10.5 10.8 12.5 10.9 7.3 9.8 5.3 8.3 10.8 9.5 9.8 8.1 8.3 4.8 4.2 4.8 5.8 8.3 13.4 15.5 16.8 17.0 18.0 14.7 12.8 14.5 13.5 11.9 10.6 11.5 11.2 11.9 12.4 11.8 12.1 13.1 14.0 12.9 12.3 11.0 12.0 11.7 10.0 10.6 10.5 9.9 10.7 10.3 10.9 9.9 9.9
9.8 13.5 12.1 10.2 14.3 15.3 12.0 14.3 15.1 13.3 13.1 12.9 11.9 12.8 10.2 9.4 6.6 5.4 5.3 10.9 11.5 11.5 nan 14.5 12.2 11.1 11.8 11.9 10.7 10.1 nan 9.7 9.7 9.8 11.0 11.6 10.3 9.3 11.8 12.5 12.0 12.7 13.0 12.6 12.8 12.5 12.9 13.8 13.1 11.6 11.2 11.9 11.2 9.8
17.9 15.9 16.9 12.9 19.1 16.5 14.8 14.9 9.0 17.3 13.5 12.8 9.8 9.6 10.6 6.4 5.8 5.2 4.6 9.1 9.3 9.2 9.8 10.5 10.8 12.1 10.3 10.0 9.4 9.2 nan 10.9 11.9 nan nan nan nan nan 11.6 10.8 11.0 11.4 11.1 12.0 12.8 12.4 13.1 13.8 14.0 10.6 11.1 12.0 12.7 11.6
Water_Equivalent
nan nan nan nan nan nan nan nan nan nan nan nan nan nan nan nan nan 0.00 0.00 0.00 0.10 1.03 0.03 0.00 0.00 0.16 0.10 0.15 0.61 0.21 0.72 0.34 0.44 0.66 0.56 0.45 0.49 0.58 0.26 0.01 0.15 0.49 0.31 0.32 0.21 0.45 0.79 0.00 0.00 0.14 0.26 0.03 0.22 0.33
nan nan nan nan nan nan nan nan nan nan nan nan nan nan nan nan nan nan 0.03 0.00 0.00 0.36 0.21 0.00 0.00 0.00 0.01 0.02 0.36 0.15 0.52 0.24 0.29 0.47 0.63 0.52 0.43 0.33 0.24 0.23 0.02 1.04 0.44 0.53 0.09 0.09 0.00 0.00 0.00 0.00 0.00 0.06 0.11 0.41
nan nan nan nan nan nan nan nan nan nan nan nan nan nan nan nan nan nan 0.00 0.00 0.04 0.74 0.33 0.17 0.17 0.00 0.00 0.00 0.00 0.93 0.17 0.68 0.59 0.66 1.24 0.56 0.66 0.46 0.40 0.19 0.13 0.09 0.04 0.14 0.11 0.00 0.00 0.00 0.00 0.00 0.00 0.03 0.04 0.14
nan nan nan nan nan nan nan nan nan nan nan nan nan nan nan nan nan nan 0.00 0.00 0.02 0.63 1.48 0.21 0.00 0.04 0.00 0.00 0.01 0.02 0.10 0.21 0.85 0.91 1.73 1.54 1.07 0.38 0.46 0.42 0.40 0.15 0.05 0.03 0.02 0.01 0.01 0.00 0.01 0.01 0.01 0.01 0.02 0.03
nan nan nan nan nan nan nan nan nan nan nan nan nan nan nan nan nan nan 0.00 0.00 0.00 0.56 0.66 0.15 0.01 0.02 0.00 0.00 0.05 0.16 0.81 1.01 2.09 2.85 2.87 2.16 0.61 0.94 0.34 0.71 0.52 0.19 0.19 0.13 0.05 0.00 0.04 0.02 0.01 0.00 0.06 0.10 0.11 0.21
nan nan nan nan nan nan nan nan nan nan nan nan nan nan nan nan nan 0.00 0.31 0.10 0.00 0.20 1.13 0.69 0.15 0.17 0.03 0.01 0.40 0.73 0.85 1.55 1.49 1.41 1.89 1.64 0.93 1.18 1.48 0.68 0.26 0.16 0.10 0.08 0.21 0.02 0.02 0.01 0.01 0.03 0.16 0.10 0.18 0.18
nan nan nan nan nan nan nan nan nan nan nan nan nan nan nan nan 0.00 0.18 0.33 0.05 nan 0.14 0.76 2.34 0.48 0.25 0.32 0.30 0.44 0.95 0.69 1.10 1.17 1.43 1.13 0.92 0.79 0.90 0.77 0.67 0.40 0.42 0.23 0.09 0.02 0.12 0.10 0.03 0.19 0.05 0.09 0.08 0.12 0.20
nan nan nan nan nan nan nan nan nan nan nan nan nan nan nan nan nan 0.25 0.02 nan nan 0.45 0.35 2.61 1.00 0.33 0.08 0.40 0.69 0.46 0.93 0.59 0.65 0.89 0.87 0.86 0.63 0.67 1.43 0.83 0.75 0.59 0.34 0.22 0.15 0.13 0.18 0.13 0.09 0.12 0.11 0.12 0.16 0.26
nan nan nan nan nan nan nan nan nan nan nan nan nan nan 0.00 0.27 0.65 0.41 nan nan 0.02 0.50 1.72 1.32 1.01 1.94 0.10 0.30 0.56 0.81 0.70 1.04 0.51 1.04 0.79 0.29 0.60 1.52 1.43 0.91 0.72 0.70 0.64 0.62 0.27 0.27 0.29 0.26 0.31 0.29 0.26 0.29 0.21 0.47
nan nan nan nan nan nan nan nan nan nan nan nan 0.01 1.11 3.17 1.02 nan nan 0.72 1.02 1.12 0.78 0.83 1.16 0.08 0.69 0.25 0.22 0.41 0.65 0.47 0.95 2.30 0.90 0.31 0.77 1.71 0.87 1.27 1.32 1.11 1.11 1.10 0.80 0.47 0.67 0.41 0.41 0.44 0.50 0.63 0.59 0.55 0.69
nan nan nan nan nan nan nan nan nan nan nan 0.18 2.05 2.19 1.36 nan 0.58 1.26 3.60 3.05 1.42 2.05 0.29 0.32 0.30 0.50 0.18 0.93 0.69 0.42 1.48 1.05 2.31 0.68 0.45 1.33 1.13 1.68 1.29 1.19 1.20 1.12 1.06 1.25 0.87 0.87 0.64 0.67 0.73 0.53 0.54 0.56 0.57 0.46
nan nan nan nan nan nan nan nan nan 0.03 0.62 0.73 0.73 0.70 0.95 1.84 3.14 3.34 3.16 1.81 1.01 0.73 0.22 0.37 0.47 0.43 0.29 0.27 1.08 1.27 1.81 1.87 2.17 0.51 1.21 1.34 1.49 1.29 0.95 1.21 1.19 1.10 0.90 1.11 0.75 0.73 0.71 0.63 0.56 0.53 0.54 0.54 0.53 0.61
nan nan nan nan nan nan nan nan nan nan nan 1.18 2.82 5.55 4.69 4.76 8.07 3.36 2.33 1.74 1.50 0.40 0.51 0.67 0.96 0.27 0.18 0.29 1.33 1.33 2.06 1.75 0.26 1.95 0.75 1.06 1.18 0.95 0.98 0.77 0.92 0.99 0.83 0.71 0.72 0.77 0.63 0.64 0.46 0.39 0.54 0.69 0.44 0.28
nan nan nan nan nan nan nan nan nan 0.07 0.42 4.81 7.83 11.77 4.45 4.09 1.25 0.88 0.59 0.68 0.53 0.66 0.40 0.29 0.38 0.72 0.25 1.18 0.58 2.09 0.43 0.52 1.82 1.39 0.94 0.76 0.66 0.55 0.50 0.62 0.33 0.56 0.48 0.34 0.54 0.33 0.34 0.17 0.21 0.21 0.13 0.11 0.11 0.10
nan nan nan nan nan nan nan nan nan 0.29 1.19 8.56 5.62 6.81 3.89 1.06 1.16 0.95 1.06 0.76 0.36 0.16 0.27 0.31 0.45 0.38 1.16 1.67 0.65 0.78 1.50 1.59 0.43 0.61 0.49 0.58 0.29 0.25 0.18 0.17 0.18 0.11 0.12 0.08 0.06 0.06 0.04 0.05 0.07 0.09 0.10 0.10 0.08 0.06
nan nan 0.00 nan nan nan nan nan 1.20 2.15 8.33 8.50 5.71 3.99 0.60 1.16 1.54 1.09 1.18 0.73 0.17 0.11 0.21 0.51 1.69 2.18 1.68 1.25 1.58 1.54 1.91 1.02 0.70 0.60 0.40 0.20 0.04 0.03 0.02 0.01 0.02 0.03 0.02 0.03 0.02 0.02 0.02 0.03 0.04 0.08 0.08 0.08 0.08 0.11
nan 0.11 nan nan nan nan nan 1.74 4.74 10.07 9.76 8.83 5.66 0.72 0.74 0.98 1.00 0.40 0.11 0.09 0.04 0.42 1.27 1.28 2.32 1.53 0.93 1.66 1.28 0.77 1.44 0.56 0.34 0.31 0.13 0.01 0.01 0.00 0.00 0.01 0.01 0.00 0.01 0.02 0.02 0.00 0.00 0.01 0.02 0.03 0.04 0.08 0.10 0.12
0.04 0.00 nan nan nan nan 1.81 3.69 9.12 10.47 9.25 3.78 1.90 1.11 0.39 0.34 0.34 0.24 0.12 0.11 0.25 0.47 0.64 1.89 0.89 2.07 1.82 1.45 0.74 0.69 0.51 0.49 0.20 0.09 0.05 0.01 0.00 0.00 0.00 0.00 0.00 0.01 0.02 0.02 0.02 0.03 0.03 0.04 0.04 0.08 0.09 0.16 0.15 0.15
0.04 0.03 nan nan 0.05 2.54 9.18 10.11 5.20 6.27 4.45 1.29 0.85 0.61 0.42 0.27 0.23 0.18 0.14 0.10 0.14 0.08 1.03 1.66 2.41 2.46 0.65 0.75 0.80 0.76 0.45 0.14 0.02 0.01 0.01 0.00 0.00 0.00 0.00 0.02 0.02 0.02 0.04 0.04 0.02 0.06 0.05 0.03 0.05 0.17 0.18 0.13 0.17 0.20
nan nan nan nan nan 6.84 9.05 7.42 2.99 2.49 2.55 1.57 1.16 1.36 0.93 0.57 0.25 0.23 0.21 0.17 0.30 1.33 2.38 3.08 0.88 0.36 0.33 0.41 0.43 0.27 0.12 0.01 0.00 0.00 0.00 0.00 0.00 0.03 0.04 0.06 0.00 0.01 0.01 0.02 0.07 nan 0.08 0.05 0.06 0.03 0.07 0.12 0.25 0.21
nan nan nan 0.88 4.60 4.50 5.46 4.23 3.30 2.87 2.11 1.62 2.01 1.35 1.73 1.42 1.49 1.75 1.70 0.36 1.89 2.80 1.94 0.66 0.46 0.39 0.35 0.30 0.07 0.01 0.01 0.00 0.00 0.00 0.00 0.06 0.00 0.07 0.10 0.15 0.18 0.00 0.02 0.02 0.09 0.11 0.06 0.07 0.08 0.12 1.17 0.16 0.09 0.14
0.86 nan 2.26 2.00 6.93 6.39 4.07 2.44 2.51 1.70 1.87 1.91 2.07 1.80 2.96 3.54 3.15 2.87 1.23 3.22 2.72 1.02 0.53 0.44 0.41 0.26 0.20 0.09 0.05 0.02 0.01 0.01 0.00 0.00 nan 0.01 0.08 0.12 0.13 0.18 0.26 0.72 0.64 0.75 0.44 0.27 0.15 0.13 0.22 0.27 0.19 0.22 0.20 0.21
nan 0.93 3.54 4.96 5.52 4.76 5.98 1.88 2.24 2.47 2.56 3.39 2.95 2.72 3.35 3.42 2.36 1.39 2.98 1.59 1.02 0.54 0.47 0.39 0.26 0.16 0.14 0.05 0.02 0.02 0.01 0.02 0.04 0.03 0.01 0.03 0.02 0.12 0.23 0.15 0.20 1.08 1.04 0.33 0.19 0.38 0.57 nan 0.19 0.34 0.29 0.23 0.28 0.38
nan 5.43 6.35 4.77 3.70 3.86 1.42 2.53 0.99 1.39 1.88 2.08 2.73 2.39 2.33 2.07 1.70 2.96 2.12 1.08 0.67 0.48 0.39 0.22 0.27 0.24 0.24 0.29 0.19 0.10 0.08 0.04 0.07 0.10 0.08 0.16 0.27 0.10 0.04 0.10 0.10 0.13 0.26 0.28 0.43 0.51 0.45 0.52 nan 0.55 0.55 0.66 0.65 0.74
7.94 9.57 4.15 6.34 2.22 2.12 1.27 1.12 1.99 1.21 1.49 1.54 1.66 1.95 1.88 1.44 2.28 2.37 1.22 1.05 0.73 0.59 0.42 0.28 0.30 0.36 0.75 0.72 0.12 0.13 0.05 0.12 0.30 0.31 0.16 0.16 0.37 0.33 0.42 0.19 0.04 0.12 0.35 1.28 0.71 0.60 0.63 0.74 0.70 0.77 0.69 0.76 0.81 0.88
7.78 3.06 5.01 1.26 1.83 0.93 0.75 1.04 0.99 1.19 0.97 1.48 1.40 1.11 1.53 1.47 1.91 2.17 0.74 0.97 0.96 0.82 1.02 1.02 0.85 0.55 0.27 0.20 0.29 0.30 0.20 0.16 0.25 0.42 0.26 0.27 0.35 0.96 1.16 0.55 0.54 0.35 0.24 0.81 1.77 1.37 0.93 0.87 1.07 1.00 0.94 0.76 nan 1.38
5.03 2.36 0.88 0.12 0.22 0.17 0.33 0.36 0.31 0.69 1.33 1.20 1.00 0.89 1.28 2.21 1.46 0.37 0.29 0.32 0.54 0.65 0.59 0.52 0.45 0.43 0.39 0.33 0.22 0.29 0.30 0.49 0.55 0.54 0.27 0.29 0.30 0.36 1.03 1.78 1.33 0.27 0.47 1.20 1.37 1.29 1.40 1.02 1.11 1.12 1.16 1.09 1.00 1.00
0.48 0.43 0.64 0.97 0.42 0.45 0.44 0.42 0.65 0.88 0.73 0.31 0.46 1.22 1.29 0.82 0.61 0.35 0.36 0.40 0.72 0.84 0.95 0.73 0.65 0.71 0.89 0.84 0.84 0.81 0.98 0.91 0.90 0.72 0.58 0.39 0.49 0.93 1.05 1.01 1.08 nan 1.49 1.37 1.77 1.56 1.42 1.34 1.39 1.25 1.23 1.29 1.15 0.96
0.88 0.53 0.41 1.15 0.99 1.11 1.25 1.02 0.72 0.32 0.05 0.24 0.80 0.60 0.43 0.16 0.64 0.56 0.34 0.58 0.92 1.02 0.95 0.92 1.18 1.34 1.32 1.10 1.04 1.12 1.26 1.21 1.27 0.79 0.43 0.46 0.57 0.95 1.32 1.38 1.60 1.51 1.45 1.42 nan nan 1.63 1.79 1.67 1.47 1.19 1.18 0.95 1.29
0.82 1.01 0.87 1.06 0.96 0.87 0.93 0.49 0.94 0.81 0.30 0.38 0.41 0.46 0.30 0.44 0.57 0.49 0.59 0.69 0.83 1.25 1.57 1.96 1.93 2.26 1.88 1.46 1.52 1.23 1.47 1.59 1.39 1.33 1.35 1.02 0.98 0.90 1.33 1.61 1.54 1.43 1.50 1.53 1.39 1.39 nan 1.32 nan 1.39 1.45 1.27 1.25 1.25
0.77 1.27 1.03 0.99 1.07 1.35 1.06 0.60 0.94 0.43 0.78 1.15 0.99 1.08 0.85 0.89 0.46 0.40 0.42 0.56 0.83 1.50 1.81 2.07 2.14 2.30 1.73 1.44 1.71 1.54 1.31 1.19 1.35 1.31 1.37 1.39 1.36 1.47 1.63 1.78 1.72 1.69 1.57 1.56 1.47 1.33 1.41 1.30 1.24 1.33 1.12 1.19 1.08 1.06
0.99 1.37 1.25 0.96 1.57 1.75 1.21 1.55 1.65 1.44 1.41 1.42 1.33 1.40 1.09 1.00 0.63 0.51 0.44 1.13 1.21 1.16 nan 1.60 1.27 1.16 1.32 1.30 1.15 1.12 nan 1.05 1.07 1.08 1.19 1.28 1.20 1.15 1.44 1.56 1.67 1.57 1.57 1.54 1.51 1.43 1.46 1.60 1.45 1.36 1.18 1.38 1.27 1.02
1.98 1.69 1.86 1.28 2.24 1.83 1.63 1.76 0.88 2.20 1.51 1.39 1.00 0.98 1.13 0.63 0.51 0.49 0.38 0.85 0.86 0.83 0.94 1.07 1.12 1.29 1.04 1.01 0.94 0.93 nan 1.16 1.30 nan nan nan nan nan 1.42 1.22 1.26 1.24 1.17 1.31 1.42 1.37 1.41 1.50 1.56 1.21 1.26 1.37 1.37 1.24
SL_Ratio
nan nan nan nan nan nan nan nan nan nan nan nan nan nan nan nan nan nan 0.0 nan 3.9 5.2 4.8 nan nan 4.8 4.2 4.8 7.8 4.6 6.7 5.5 7.1 8.5 7.3 7.5 8.5 9.5 10.7 11.0 11.5 11.7 9.7 7.5 6.9 7.0 8.0 nan 10.0 16.2 12.7 11.1 11.0 11.3
nan nan nan nan nan nan nan nan nan nan nan nan nan nan nan nan nan nan 3.5 nan nan 4.2 4.1 nan nan nan 3.1 3.5 4.9 5.4 5.1 4.8 5.6 6.9 6.0 7.8 7.7 6.2 9.3 9.4 7.6 11.4 9.7 11.6 9.5 11.8 nan nan 0.0 0.0 8.6 11.2 11.3 11.5
nan nan nan nan nan nan nan nan nan nan nan nan nan nan nan nan nan nan 5.0 nan 3.6 4.1 3.9 4.2 3.6 nan nan nan 5.0 7.1 4.6 4.1 5.9 5.4 7.5 7.1 7.7 5.4 8.9 8.6 10.2 8.0 6.6 8.8 8.2 5.4 nan nan nan nan nan 10.2 9.5 9.2
nan nan nan nan nan nan nan nan nan nan nan nan nan nan nan nan nan nan 3.3 nan 2.7 4.1 7.0 5.6 nan 3.6 nan nan 2.6 3.4 4.5 5.3 5.2 6.3 7.1 6.2 7.4 7.5 8.3 9.0 9.1 8.9 7.8 8.1 7.4 5.9 6.5 3.3 4.6 5.0 10.0 8.3 8.6 6.8
nan nan nan nan nan nan nan nan nan nan nan nan nan nan nan nan nan nan nan nan nan 5.1 6.3 5.5 3.6 3.2 nan 4.4 4.0 4.2 5.4 6.6 6.6 6.5 6.5 7.6 7.5 8.1 8.6 8.9 9.6 9.1 11.6 10.6 8.3 5.0 10.8 5.7 3.9 6.7 9.8 9.7 8.8 9.7
nan nan nan nan nan nan nan nan nan nan nan nan nan nan nan nan nan nan 4.0 2.5 nan 2.7 6.2 5.6 3.8 4.8 3.2 2.9 4.7 4.8 4.6 5.5 6.0 6.8 7.3 7.4 7.3 7.9 8.4 9.3 8.6 7.4 6.6 10.2 11.3 5.7 7.4 5.7 4.5 6.9 10.0 9.1 8.8 9.2
nan nan nan nan nan nan nan nan nan nan nan nan nan nan nan nan nan 3.0 4.1 2.7 nan 2.9 5.8 4.5 5.7 4.2 4.5 4.6 4.0 5.2 4.9 6.3 6.9 7.1 7.3 8.4 8.5 7.5 7.2 9.5 8.7 7.7 6.9 6.3 5.5 11.1 7.6 5.0 9.6 8.4 8.8 8.1 8.3 8.1
nan nan nan nan nan nan nan nan nan nan nan nan nan nan nan nan nan 4.9 5.3 nan nan 4.1 4.8 5.3 5.2 6.1 5.1 6.7 7.8 4.8 7.1 6.7 6.8 7.6 7.1 7.9 8.0 7.7 9.0 9.1 8.4 8.0 7.5 7.5 7.0 8.6 9.5 8.1 7.5 7.4 7.2 7.3 8.2 8.7
nan nan nan nan nan nan nan nan nan nan nan nan nan nan 5.0 4.4 5.6 5.1 nan nan 3.5 5.4 5.7 5.3 5.6 4.4 5.2 6.9 7.0 7.2 6.8 8.0 7.8 7.8 8.5 7.8 8.7 9.0 10.6 10.1 9.1 8.5 9.9 9.2 8.2 8.2 7.9 8.9 8.8 8.4 8.5 8.5 9.0 9.1
nan nan nan nan nan nan nan nan nan nan nan nan 4.3 4.2 5.2 5.3 nan nan 6.0 6.3 5.1 5.6 5.0 6.2 8.5 7.4 8.4 8.2 7.8 8.3 7.0 7.0 6.0 10.3 8.2 9.1 11.3 9.3 9.2 9.0 8.7 8.4 8.2 8.3 9.5 9.7 8.9 9.2 9.3 9.2 9.1 8.7 9.3 9.2
nan nan nan nan nan nan nan nan nan nan nan 4.1 5.4 5.7 4.9 nan 5.9 6.9 5.6 5.9 5.4 6.2 5.5 8.0 8.8 9.4 7.1 7.0 7.8 7.7 5.9 5.9 6.5 7.7 8.5 7.3 10.8 10.6 9.7 9.4 8.9 8.7 8.6 8.5 8.7 8.8 9.0 9.4 9.5 9.5 9.2 8.9 8.8 8.9
nan nan nan nan nan nan nan nan nan 2.5 2.7 5.0 5.1 5.6 6.2 6.3 6.3 6.5 6.8 5.6 6.0 5.9 7.2 8.3 8.1 7.7 7.6 7.9 7.5 6.9 6.7 6.2 7.9 7.3 7.0 8.9 10.7 10.2 10.3 10.2 9.9 9.7 9.7 9.7 9.4 9.8 9.6 9.5 9.5 9.6 9.6 9.5 9.3 9.0
nan nan nan nan nan nan nan nan nan nan nan 4.0 4.9 4.8 5.7 6.3 6.3 7.2 7.7 5.1 4.5 6.2 5.8 6.3 6.0 7.2 5.6 6.8 6.5 6.8 6.7 6.8 6.1 6.2 10.9 11.4 11.1 10.5 10.5 10.7 10.8 10.2 10.2 10.2 10.3 9.8 9.9 10.1 9.6 9.7 9.8 9.2 9.1 9.4
nan nan nan nan nan nan nan nan nan 2.8 3.8 4.6 4.9 5.7 6.7 7.5 7.2 7.0 9.0 7.5 8.0 6.7 7.2 7.6 5.3 6.9 7.1 6.7 6.8 6.2 7.6 7.6 7.3 8.1 11.6 11.8 11.9 11.9 11.5 11.1 11.6 11.8 11.3 11.4 10.9 10.6 10.6 10.8 11.0 10.4 10.2 10.0 10.1 10.3
nan nan nan nan nan nan nan nan nan 4.2 4.3 4.8 5.0 6.4 7.3 8.2 6.9 6.5 4.7 5.5 5.0 6.4 7.9 6.6 5.6 9.1 4.8 5.8 6.7 5.4 7.4 7.0 7.5 9.4 10.9 10.2 11.9 12.1 12.3 12.1 11.5 11.8 12.1 12.3 11.6 11.6 11.4 11.0 10.7 11.1 10.7 10.5 10.3 10.2
nan nan nan nan nan nan nan nan 4.0 4.3 4.3 4.8 5.7 6.9 8.3 5.4 5.7 5.4 3.8 4.2 4.8 6.7 6.2 6.7 5.8 6.6 6.1 6.4 6.5 7.1 7.2 8.5 8.4 7.1 9.3 9.0 12.1 12.2 9.7 8.4 10.8 12.6 12.3 11.7 11.7 11.4 11.4 11.6 11.5 11.4 10.8 11.0 10.7 10.6
nan 2.5 nan nan nan nan nan 4.2 3.9 4.1 4.7 5.1 5.9 7.5 7.2 5.7 6.6 7.8 10.0 11.0 8.1 7.3 5.8 5.7 7.2 7.0 4.7 7.2 8.1 6.4 6.9 8.0 6.3 8.0 7.5 5.9 6.4 6.0 4.4 3.9 5.9 5.0 5.3 5.0 8.4 5.3 11.1 11.5 11.0 11.3 11.9 11.4 10.8 10.2
3.2 2.7 nan nan nan nan 6.3 4.7 4.5 4.7 5.8 5.9 7.1 6.8 8.3 8.4 8.6 10.2 11.3 9.8 6.6 6.0 5.1 4.4 5.1 6.4 7.8 8.9 9.5 10.3 9.7 7.9 6.0 5.2 4.0 4.1 12.5 10.0 nan 5.0 5.6 4.4 4.2 5.5 4.8 4.6 4.3 4.8 6.4 9.3 8.6 8.1 8.8 8.7
3.4 3.6 nan nan 4.2 4.4 4.7 5.0 4.3 6.4 6.0 5.7 6.5 6.0 7.0 9.6 10.7 10.0 9.8 9.5 7.2 4.1 4.0 5.0 6.1 7.0 10.6 10.9 9.3 7.7 7.1 4.7 8.7 13.9 13.9 14.0 13.3 nan 4.3 3.7 3.8 4.3 5.1 6.2 5.3 5.0 6.2 9.3 10.1 7.8 7.8 7.5 8.7 8.1
nan nan nan nan nan 5.0 5.9 5.9 4.7 6.3 6.8 7.1 5.6 6.6 7.7 8.5 10.2 9.8 10.0 8.0 5.6 3.6 5.0 6.3 9.9 16.0 15.9 14.1 10.9 10.1 9.1 6.7 15.0 15.7 14.4 14.0 12.0 4.1 4.4 3.8 15.0 4.0 13.7 6.9 6.1 nan 4.9 7.2 6.9 8.4 9.4 9.4 9.4 9.6
nan nan nan 7.7 4.6 4.9 5.1 6.3 6.6 6.8 7.0 7.1 6.5 6.7 8.6 5.7 6.5 5.4 4.8 4.7 4.8 5.7 7.6 12.5 14.3 14.6 13.1 11.8 11.1 11.4 12.2 16.7 12.0 15.0 14.0 4.5 13.3 3.1 3.7 3.8 4.2 3.6 6.3 9.5 8.6 9.2 9.5 11.2 10.8 7.1 5.4 8.8 10.0 9.6
5.9 nan 5.2 5.9 5.2 5.6 6.7 6.7 6.8 7.0 7.4 7.0 6.9 6.4 6.7 6.6 6.6 6.8 5.0 5.8 6.9 8.2 12.4 13.3 11.9 11.3 11.5 12.9 10.1 7.9 4.7 6.1 6.3 7.1 nan 9.4 5.3 5.1 5.8 5.0 6.2 6.5 6.1 5.8 6.3 7.5 7.9 7.7 7.8 7.8 7.6 7.2 8.1 8.4
nan 6.2 5.3 4.6 6.6 6.8 7.0 7.0 8.0 7.6 8.1 7.6 7.3 7.7 7.3 7.0 7.3 5.5 7.1 6.5 8.0 10.8 10.4 9.6 10.9 12.5 9.4 11.4 9.4 9.6 4.7 6.3 6.1 5.6 8.0 7.6 6.3 4.8 4.9 5.8 5.5 6.7 7.0 6.5 5.6 7.1 7.2 nan 7.1 8.0 7.3 7.4 8.4 8.2
nan 5.5 6.3 7.0 7.4 7.8 8.2 7.8 8.3 8.3 8.1 8.3 7.9 8.6 8.0 7.7 6.9 7.4 8.2 9.0 8.8 8.5 8.6 9.4 7.1 7.8 8.3 8.5 6.6 6.1 5.6 4.8 6.9 6.4 5.3 5.8 6.4 7.2 8.1 7.0 7.7 6.6 7.1 6.8 6.9 7.0 6.8 7.1 nan 7.1 7.7 8.4 8.3 8.5
5.5 6.0 6.6 6.8 7.8 8.2 8.9 9.6 8.4 9.3 8.8 8.9 9.0 8.7 8.3 8.9 8.0 7.9 9.3 9.2 8.9 8.6 6.9 6.0 6.0 6.1 5.7 5.6 5.8 5.9 7.0 5.6 6.0 6.7 5.7 5.9 7.0 7.1 6.3 5.8 6.5 6.9 7.2 6.5 7.9 8.0 7.4 7.3 7.2 7.7 7.9 8.4 8.7 9.2
6.3 7.4 6.7 8.1 7.9 8.8 9.3 9.4 9.8 9.3 9.4 9.5 9.6 10.0 9.1 8.9 8.4 8.0 10.4 8.9 8.3 7.1 6.4 6.3 5.9 6.6 7.4 6.5 6.7 6.4 5.7 5.4 6.3 6.7 5.6 5.7 6.8 6.8 6.4 7.2 7.0 6.5 5.9 7.5 7.4 7.7 8.0 7.7 7.9 8.2 8.0 7.6 nan 7.6
7.1 7.8 8.5 8.6 10.2 11.4 10.6 10.2 10.1 9.7 9.6 9.5 9.4 9.8 8.8 8.6 9.0 11.6 10.5 9.3 10.0 7.8 8.0 6.2 5.4 5.6 6.1 6.3 5.8 5.7 5.4 5.2 6.2 6.3 6.0 5.5 5.5 6.4 6.7 7.4 8.1 6.6 7.1 6.5 6.7 7.5 8.0 8.1 8.0 7.8 7.7 6.9 6.9 7.6
8.9 9.5 9.8 9.0 10.4 10.4 10.6 11.1 10.3 9.6 9.6 10.2 9.8 9.4 9.0 9.6 9.6 9.3 9.6 9.0 9.0 8.9 9.4 9.5 8.0 7.3 8.0 7.8 7.5 7.8 8.1 8.1 8.8 7.8 7.2 6.8 6.9 6.5 6.7 6.4 6.4 nan 6.6 6.8 7.4 7.1 6.9 7.1 7.2 7.1 7.8 7.6 7.2 7.1
9.5 9.6 10.1 9.7 10.4 9.8 9.3 9.4 9.9 10.7 12.9 10.1 8.9 9.5 10.3 11.7 8.7 8.9 8.9 8.7 8.4 9.4 9.4 9.5 9.0 7.6 8.2 8.6 8.6 8.1 8.3 7.9 8.5 9.4 10.0 9.1 8.9 8.3 7.0 6.8 6.8 6.6 6.5 6.6 nan nan 7.3 7.1 6.9 6.7 6.6 7.1 6.6 6.5
10.2 9.2 10.2 10.2 9.7 10.0 9.7 11.2 9.5 9.8 10.9 9.7 9.9 10.6 11.6 10.6 8.9 7.7 9.3 10.1 10.3 9.3 8.6 8.1 8.1 7.6 8.0 8.5 8.6 9.4 8.8 8.0 7.8 8.4 8.9 8.9 8.1 7.5 7.3 7.7 7.4 6.8 6.6 6.8 6.9 6.2 nan 5.8 nan 6.2 7.4 8.3 7.9 8.8
10.2 9.1 10.3 10.6 10.1 9.2 10.2 12.1 10.4 12.4 10.6 9.4 9.6 9.1 9.6 9.4 10.4 10.5 11.5 10.5 10.0 8.9 8.6 8.1 8.0 7.8 8.5 8.9 8.5 8.7 9.1 8.9 8.5 8.5 8.7 8.9 8.6 8.2 8.0 7.9 7.5 7.3 7.0 7.7 7.9 7.5 7.5 8.1 8.0 8.1 9.2 9.2 9.1 9.4
9.9 9.8 9.7 10.5 9.1 8.7 9.9 9.3 9.2 9.3 9.3 9.1 8.9 9.1 9.4 9.4 10.5 10.7 12.1 9.7 9.5 9.9 nan 9.1 9.6 9.5 8.9 9.2 9.4 9.0 nan 9.3 9.1 9.1 9.2 9.1 8.6 8.1 8.2 8.0 7.2 8.1 8.2 8.2 8.5 8.8 8.8 8.7 9.0 8.6 9.4 8.6 8.8 9.6
9.0 9.4 9.0 10.1 8.5 9.0 9.1 8.4 10.3 7.9 8.9 9.2 9.7 9.8 9.4 10.2 11.4 10.7 12.2 10.7 10.8 11.1 10.4 9.7 9.6 9.3 9.9 10.0 10.0 9.9 nan 9.4 9.2 nan nan nan nan nan 8.2 8.8 8.8 9.2 9.5 9.2 9.0 9.1 9.3 9.2 9.0 8.8 8.9 8.8 9.2 9.4